contact:dominique.lefevre@mio.osupytheas.fr, maurice.libes@osupytheas.fr, didier.mallarino@osupytheas.fr
Project:EMSO http://www.emso-fr.org/EMSO-France
Depth: 2436.0 m
Title:EMSO Ligure Ouest : Data MII capteur AQUADOPP
Date,Latitude,Longitude,X_East,Y_North,Z_Up,Amplitude_X,Amplitude_Y,Amplitude_Z,Batterie,SoundSpeed,Heading,Pitch,Roll,Pressure,TIS,Speed,Direction
, degrees North, degrees East, m.s-1, m.s-1,m.s-1, 1, 1, 1, Volt, m.s-1, degree, degree, degree, dbar, degree_C, m.s-1, degree
2020-04-02T00:04:03,42.805,6.029,0.022,0.036,-0.031,105.0,113.0,101.0,13.4,1505.3,324.5,-0.7,1.8,2470.457,13.31,0.042,31.4
2020-04-02T00:07:03,42.805,6.029,-0.005,0.013,-0.046,103.0,114.0,102.0,13.4,1505.3,323.8,-0.7,1.8,2470.39,13.31,0.013,339.0
2020-04-02T00:10:03,42.805,6.029,0.01,0.039,-0.044,105.0,112.0,101.0,13.4,1505.3,326.1,-0.7,1.8,2470.412,13.32,0.04,14.4
2020-04-02T00:13:03,42.805,6.029,0.006,0.029,-0.046,103.0,113.0,101.0,13.4,1505.3,327.4,-0.7,1.9,2470.439,13.32,0.029,11.7
2020-04-02T00:16:03,42.805,6.029,0.012,-0.002,-0.014,103.0,114.0,102.0,13.4,1505.3,325.1,-0.7,1.8,2470.387,13.32,0.012,99.5
2020-04-02T00:19:03,42.805,6.029,0.007,0.025,-0.086,104.0,114.0,101.0,13.3,1505.3,326.9,-0.7,1.8,2470.433,13.32,0.025,15.6
2020-04-02T00:22:03,42.805,6.029,-0.003,0.012,-0.074,103.0,114.0,101.0,13.3,1505.3,323.4,-0.7,1.8,2470.406,13.32,0.012,346.0
2020-04-02T00:25:03,42.805,6.029,0.019,0.039,-0.049,104.0,115.0,100.0,13.3,1505.3,325.6,-0.7,1.8,2470.41,13.32,0.043,26.0
2020-04-02T00:28:03,42.805,6.029,0.024,0.035,-0.033,105.0,113.0,100.0,13.4,1505.3,327.8,-0.7,1.8,2470.391,13.32,0.042,34.4
2020-04-02T00:31:03,42.805,6.029,0.016,0.032,-0.061,104.0,114.0,101.0,13.4,1505.3,328.2,-0.7,1.9,2470.385,13.32,0.035,26.6
2020-04-02T00:34:03,42.805,6.029,-0.02,0.014,-0.084,103.0,113.0,100.0,13.4,1505.3,324.9,-0.7,1.8,2470.42,13.32,0.024,305.0
2020-04-02T00:37:02,42.805,6.029,0.015,0.03,-0.066,103.0,113.0,100.0,13.3,1505.3,326.3,-0.7,1.8,2470.409,13.32,0.033,26.6
2020-04-02T00:40:03,42.805,6.029,0.002,0.026,-0.083,104.0,114.0,101.0,13.4,1505.3,323.0,-0.7,1.8,2470.392,13.32,0.026,4.4
2020-04-02T00:43:03,42.805,6.029,0.033,0.021,-0.011,104.0,114.0,100.0,13.4,1505.3,327.6,-0.7,1.8,2470.359,13.32,0.039,57.5
2020-04-02T00:46:03,42.805,6.029,0.024,0.01,-0.068,103.0,113.0,100.0,13.4,1505.3,327.6,-0.7,1.9,2470.434,13.32,0.026,67.4
2020-04-02T00:49:03,42.805,6.029,-0.004,0.016,-0.076,103.0,114.0,102.0,13.4,1505.3,325.0,-0.7,1.8,2470.418,13.32,0.016,346.0
2020-04-02T00:52:03,42.805,6.029,0.017,0.018,-0.068,103.0,113.0,101.0,13.4,1505.3,325.3,-0.7,1.8,2470.412,13.33,0.024,43.4
2020-04-02T00:55:03,42.805,6.029,-0.005,0.052,-0.031,103.0,113.0,101.0,13.3,1505.3,323.0,-0.7,1.9,2470.385,13.33,0.052,354.5
2020-04-02T00:58:03,42.805,6.029,0.012,0.018,-0.034,104.0,114.0,101.0,13.4,1505.3,325.4,-0.7,1.8,2470.364,13.33,0.021,33.7
2020-04-02T01:04:03,42.805,6.029,0.035,0.032,-0.031,106.0,114.0,102.0,13.4,1505.3,327.9,-0.8,1.8,2470.455,13.31,0.047,47.6
2020-04-02T01:07:03,42.805,6.029,-0.024,0.025,-0.058,105.0,113.0,100.0,13.4,1505.3,324.3,-0.7,1.8,2470.407,13.31,0.034,316.2
2020-04-02T01:10:03,42.805,6.029,0.009,0.016,-0.03,103.0,113.0,101.0,13.4,1505.3,323.9,-0.7,1.9,2470.454,13.32,0.018,29.4
2020-04-02T01:13:03,42.805,6.029,-0.008,0.032,-0.064,102.0,114.0,101.0,13.3,1505.3,327.1,-0.7,1.8,2470.454,13.32,0.032,346.0
2020-04-02T01:16:03,42.805,6.029,-0.037,0.039,-0.084,103.0,114.0,101.0,13.4,1505.3,325.6,-0.7,1.8,2470.474,13.32,0.053,316.5
2020-04-02T01:19:03,42.805,6.029,0.0,0.02,-0.037,102.0,113.0,102.0,13.4,1505.3,327.8,-0.7,1.9,2470.411,13.32,0.02,0.0
2020-04-02T01:22:03,42.805,6.029,-0.004,0.027,-0.033,103.0,114.0,101.0,13.4,1505.3,326.6,-0.7,1.8,2470.387,13.32,0.027,351.6
2020-04-02T01:25:03,42.805,6.029,-0.011,0.037,-0.075,105.0,112.0,101.0,13.4,1505.3,326.8,-0.7,1.9,2470.427,13.32,0.038,343.4
2020-04-02T01:28:03,42.805,6.029,0.022,0.033,-0.014,104.0,112.0,101.0,13.3,1505.3,327.4,-0.7,1.8,2470.425,13.33,0.039,33.7
2020-04-02T01:31:03,42.805,6.029,0.021,0.023,-0.033,104.0,112.0,101.0,13.4,1505.3,327.2,-0.7,1.8,2470.412,13.33,0.031,42.4
2020-04-02T01:34:03,42.805,6.029,0.038,0.022,-0.021,104.0,111.0,100.0,13.4,1505.3,326.6,-0.7,1.8,2470.382,13.33,0.043,59.9
2020-04-02T01:37:03,42.805,6.029,0.006,0.024,-0.051,104.0,112.0,101.0,13.3,1505.3,328.2,-0.7,1.9,2470.41,13.33,0.024,14.0
2020-04-02T01:40:03,42.805,6.029,0.006,0.033,-0.049,103.0,112.0,101.0,13.4,1505.3,326.1,-0.7,1.8,2470.407,13.33,0.033,10.3
2020-04-02T01:43:03,42.805,6.029,0.006,0.02,-0.021,103.0,112.0,101.0,13.4,1505.3,326.3,-0.7,1.8,2470.433,13.33,0.02,16.7
2020-04-02T01:46:03,42.805,6.029,0.036,0.022,-0.089,103.0,112.0,101.0,13.4,1505.3,325.7,-0.7,1.8,2470.354,13.33,0.042,58.6
2020-04-02T01:49:03,42.805,6.029,-0.002,0.019,-0.074,103.0,113.0,101.0,13.3,1505.3,323.3,-0.7,1.9,2470.401,13.33,0.019,354.0
2020-04-02T01:52:03,42.805,6.029,-0.002,0.005,-0.051,105.0,112.0,101.0,13.3,1505.3,325.9,-0.7,1.8,2470.407,13.33,0.005,338.2
2020-04-02T01:55:03,42.805,6.029,-0.001,0.037,-0.06,104.0,113.0,100.0,13.4,1505.3,326.4,-0.7,1.8,2470.423,13.33,0.037,358.5
2020-04-02T01:58:03,42.805,6.029,0.007,0.027,-0.058,104.0,113.0,100.0,13.3,1505.3,327.2,-0.7,1.8,2470.42,13.33,0.027,14.5
2020-04-02T02:04:03,42.805,6.029,0.017,0.038,-0.035,104.0,113.0,102.0,13.4,1505.3,323.5,-0.7,1.8,2470.427,13.31,0.041,24.1
2020-04-02T02:07:03,42.805,6.029,-0.023,0.005,-0.128,103.0,111.0,102.0,13.4,1505.3,327.4,-0.7,1.8,2470.403,13.31,0.023,282.3
2020-04-02T02:10:03,42.805,6.029,0.012,0.02,-0.038,103.0,112.0,101.0,13.3,1505.3,327.7,-0.7,1.8,2470.479,13.32,0.023,31.0
2020-04-02T02:13:03,42.805,6.029,0.0,0.026,-0.024,106.0,112.0,101.0,13.3,1505.3,326.7,-0.7,1.8,2470.378,13.32,0.026,0.0
2020-04-02T02:16:03,42.805,6.029,-0.001,0.029,-0.052,104.0,112.0,102.0,13.4,1505.3,325.4,-0.7,1.8,2470.425,13.32,0.029,358.0
2020-04-02T02:19:03,42.805,6.029,0.0,0.025,-0.018,103.0,112.0,101.0,13.4,1505.3,323.3,-0.7,1.8,2470.414,13.33,0.025,0.0
2020-04-02T02:22:03,42.805,6.029,0.0,0.013,-0.054,105.0,112.0,101.0,13.3,1505.3,324.2,-0.7,1.8,2470.404,13.33,0.013,0.0
2020-04-02T02:25:03,42.805,6.029,0.002,0.022,-0.066,105.0,113.0,101.0,13.4,1505.3,325.0,-0.7,1.8,2470.437,13.33,0.022,5.2
2020-04-02T02:28:03,42.805,6.029,0.007,0.003,-0.079,105.0,112.0,102.0,13.4,1505.3,326.5,-0.7,1.9,2470.408,13.33,0.007,66.8
2020-04-02T02:31:03,42.805,6.029,0.014,0.019,-0.027,105.0,112.0,102.0,13.4,1505.3,327.4,-0.7,1.8,2470.409,13.33,0.023,36.4
2020-04-02T02:34:03,42.805,6.029,0.023,0.021,-0.034,105.0,112.0,102.0,13.3,1505.3,324.6,-0.7,1.8,2470.41,13.33,0.031,47.6
2020-04-02T02:37:03,42.805,6.029,0.019,0.026,-0.043,104.0,113.0,103.0,13.3,1505.3,326.8,-0.7,1.8,2470.404,13.33,0.032,36.2
2020-04-02T02:40:03,42.805,6.029,0.009,0.015,-0.02,106.0,112.0,102.0,13.4,1505.3,326.0,-0.7,1.8,2470.404,13.33,0.017,31.0
2020-04-02T02:43:03,42.805,6.029,0.012,0.048,-0.062,103.0,114.0,101.0,13.4,1505.3,326.5,-0.7,1.8,2470.406,13.33,0.049,14.0
2020-04-02T02:46:03,42.805,6.029,0.003,0.036,-0.051,104.0,113.0,101.0,13.3,1505.3,328.3,-0.7,1.8,2470.38,13.33,0.036,4.8
2020-04-02T02:49:03,42.805,6.029,-0.001,0.036,-0.045,105.0,114.0,101.0,13.4,1505.3,325.9,-0.7,1.8,2470.416,13.33,0.036,358.4
2020-04-02T02:52:03,42.805,6.029,0.011,0.048,-0.017,104.0,112.0,103.0,13.4,1505.3,326.9,-0.7,1.8,2470.404,13.33,0.049,12.9
2020-04-02T02:55:03,42.805,6.029,0.025,0.03,-0.04,105.0,112.0,101.0,13.4,1505.3,325.2,-0.7,1.8,2470.416,13.33,0.039,39.8
2020-04-02T02:58:03,42.805,6.029,-0.002,0.03,-0.076,106.0,112.0,101.0,13.4,1505.3,326.3,-0.7,1.8,2470.377,13.33,0.03,356.2
2020-04-02T03:04:03,42.805,6.029,0.015,0.013,-0.051,105.0,114.0,101.0,13.3,1505.3,323.7,-0.7,1.8,2470.438,13.31,0.019,49.1
2020-04-02T03:10:02,42.805,6.029,0.003,0.023,-0.07,104.0,113.0,101.0,13.4,1505.2,327.9,-0.7,1.8,2470.485,13.3,0.023,7.4
2020-04-02T03:13:03,42.805,6.029,0.006,0.024,-0.058,104.0,113.0,102.0,13.3,1505.3,326.7,-0.7,1.9,2470.441,13.31,0.024,14.0
2020-04-02T03:16:03,42.805,6.029,-0.008,0.039,-0.072,104.0,113.0,100.0,13.4,1505.3,324.8,-0.7,1.8,2470.455,13.32,0.039,348.4
2020-04-02T03:19:03,42.805,6.029,-0.011,0.036,-0.059,104.0,113.0,102.0,13.4,1505.3,324.8,-0.7,1.8,2470.464,13.32,0.037,343.0
2020-04-02T03:22:03,42.805,6.029,0.031,0.011,-0.006,103.0,112.0,101.0,13.3,1505.3,326.0,-0.7,1.8,2470.391,13.32,0.032,70.5
2020-04-02T03:25:03,42.805,6.029,0.021,0.026,-0.036,102.0,112.0,102.0,13.4,1505.3,323.0,-0.7,1.8,2470.47,13.33,0.033,38.9
2020-04-02T03:28:03,42.805,6.029,0.005,0.024,-0.017,103.0,112.0,101.0,13.4,1505.3,327.1,-0.7,1.8,2470.428,13.33,0.024,11.8
2020-04-02T03:31:03,42.805,6.029,0.008,0.031,-0.048,103.0,112.0,101.0,13.4,1505.3,325.9,-0.7,1.8,2470.408,13.33,0.032,14.5
2020-04-02T03:34:03,42.805,6.029,-0.004,0.031,-0.033,103.0,113.0,101.0,13.4,1505.3,327.3,-0.7,1.9,2470.438,13.33,0.031,352.7
2020-04-02T03:37:03,42.805,6.029,0.04,0.022,-0.019,104.0,112.0,103.0,13.3,1505.3,325.1,-0.7,1.8,2470.388,13.33,0.045,61.2
2020-04-02T03:40:03,42.805,6.029,-0.003,0.036,-0.052,104.0,113.0,101.0,13.4,1505.3,326.5,-0.7,1.8,2470.46,13.33,0.036,355.2
2020-04-02T03:43:03,42.805,6.029,0.006,0.032,-0.048,104.0,112.0,100.0,13.3,1505.3,323.7,-0.7,1.8,2470.396,13.33,0.032,10.6
2020-04-02T03:46:03,42.805,6.029,0.017,0.031,-0.03,104.0,111.0,101.0,13.4,1505.3,324.4,-0.7,1.8,2470.423,13.33,0.035,28.7
2020-04-02T03:49:03,42.805,6.029,0.001,0.043,-0.034,105.0,111.0,102.0,13.4,1505.3,325.1,-0.7,1.9,2470.4,13.33,0.043,1.3
2020-04-02T03:52:03,42.805,6.029,0.004,0.032,-0.046,104.0,112.0,101.0,13.4,1505.3,328.2,-0.7,1.8,2470.435,13.33,0.032,7.1
2020-04-02T03:55:03,42.805,6.029,0.006,0.019,-0.06,103.0,111.0,104.0,13.3,1505.3,324.8,-0.7,1.8,2470.413,13.33,0.019,17.5
2020-04-02T03:58:03,42.805,6.029,-0.001,0.041,-0.064,104.0,114.0,101.0,13.3,1505.3,324.5,-0.7,1.8,2470.411,13.33,0.041,358.6
2020-04-02T04:04:03,42.805,6.029,0.001,0.014,-0.063,103.0,114.0,101.0,13.4,1505.3,327.0,-0.8,1.8,2470.442,13.31,0.014,4.1
2020-04-02T04:07:03,42.805,6.029,-0.012,0.033,-0.06,104.0,113.0,101.0,13.4,1505.3,328.1,-0.7,1.8,2470.441,13.32,0.035,340.0
2020-04-02T04:10:03,42.805,6.029,0.009,0.027,-0.029,104.0,113.0,101.0,13.4,1505.3,326.8,-0.7,1.8,2470.378,13.32,0.028,18.4
2020-04-02T04:13:03,42.805,6.029,0.02,-0.002,-0.015,104.0,111.0,102.0,13.4,1505.3,327.4,-0.7,1.8,2470.423,13.33,0.02,95.7
2020-04-02T04:16:03,42.805,6.029,0.013,0.03,-0.044,105.0,113.0,101.0,13.3,1505.3,326.8,-0.7,1.8,2470.423,13.33,0.032,23.4
2020-04-02T04:19:03,42.805,6.029,0.007,0.026,-0.026,105.0,111.0,102.0,13.4,1505.3,328.3,-0.7,1.8,2470.44,13.33,0.026,15.1
2020-04-02T04:22:03,42.805,6.029,0.006,0.042,-0.041,104.0,114.0,100.0,13.4,1505.3,323.5,-0.7,1.8,2470.419,13.33,0.042,8.1
2020-04-02T04:25:03,42.805,6.029,-0.014,0.033,-0.067,104.0,113.0,102.0,13.3,1505.3,325.8,-0.7,1.8,2470.428,13.33,0.035,337.0
2020-04-02T04:28:03,42.805,6.029,0.012,0.02,-0.031,104.0,114.0,102.0,13.4,1505.3,326.5,-0.7,1.8,2470.446,13.33,0.023,31.0
2020-04-02T04:31:03,42.805,6.029,-0.022,0.031,-0.052,103.0,113.0,101.0,13.3,1505.3,323.7,-0.7,1.8,2470.388,13.33,0.038,324.6
2020-04-02T04:34:03,42.805,6.029,0.006,0.025,-0.035,103.0,112.0,102.0,13.4,1505.3,323.4,-0.7,1.9,2470.431,13.33,0.025,13.5
2020-04-02T04:37:03,42.805,6.029,0.006,0.03,-0.023,103.0,113.0,102.0,13.3,1505.3,325.9,-0.7,1.8,2470.413,13.33,0.03,11.3
2020-04-02T04:40:03,42.805,6.029,0.017,0.056,-0.053,105.0,112.0,101.0,13.4,1505.3,323.3,-0.7,1.8,2470.395,13.33,0.058,16.9
2020-04-02T04:43:03,42.805,6.029,0.017,0.039,-0.062,105.0,112.0,100.0,13.3,1505.3,327.3,-0.7,1.9,2470.401,13.33,0.042,23.5
2020-04-02T04:46:03,42.805,6.029,0.024,0.027,-0.024,104.0,112.0,101.0,13.4,1505.3,324.8,-0.7,1.9,2470.39,13.33,0.036,41.6
2020-04-02T04:49:03,42.805,6.029,0.015,0.027,-0.014,104.0,114.0,101.0,13.4,1505.3,324.3,-0.7,1.8,2470.44,13.33,0.03,29.1
2020-04-02T04:52:03,42.805,6.029,0.001,0.011,-0.038,104.0,112.0,102.0,13.3,1505.3,326.5,-0.7,1.8,2470.415,13.33,0.011,5.2
2020-04-02T04:55:03,42.805,6.029,0.012,0.029,-0.058,103.0,113.0,101.0,13.4,1505.3,323.0,-0.8,1.8,2470.367,13.33,0.031,22.5
2020-04-02T04:58:03,42.805,6.029,-0.008,0.042,-0.037,104.0,113.0,102.0,13.4,1505.3,325.3,-0.7,1.8,2470.368,13.33,0.042,349.2
2020-04-02T05:04:03,42.805,6.029,0.012,0.038,-0.03,104.0,113.0,101.0,13.4,1505.3,327.7,-0.8,1.8,2470.438,13.31,0.039,17.5
2020-04-02T05:07:03,42.805,6.029,-0.003,0.04,-0.013,104.0,113.0,103.0,13.4,1505.3,323.8,-0.7,1.8,2470.418,13.32,0.04,355.7
2020-04-02T05:10:03,42.805,6.029,0.018,0.017,-0.067,104.0,113.0,101.0,13.4,1505.3,324.2,-0.7,1.8,2470.409,13.33,0.024,46.6
2020-04-02T05:13:03,42.805,6.029,-0.008,0.031,-0.014,104.0,114.0,101.0,13.4,1505.3,327.4,-0.7,1.8,2470.392,13.33,0.032,345.5
2020-04-02T05:16:03,42.805,6.029,-0.001,0.033,-0.027,105.0,113.0,102.0,13.4,1505.3,325.6,-0.7,1.8,2470.426,13.33,0.033,358.3
2020-04-02T05:19:03,42.805,6.029,0.011,0.019,-0.019,105.0,112.0,101.0,13.3,1505.3,323.9,-0.7,1.9,2470.386,13.33,0.021,30.1
2020-04-02T05:22:03,42.805,6.029,-0.013,0.028,-0.035,105.0,112.0,101.0,13.4,1505.3,323.8,-0.7,1.8,2470.445,13.33,0.03,335.1
2020-04-02T05:25:03,42.805,6.029,-0.002,0.041,-0.055,104.0,113.0,102.0,13.4,1505.3,322.9,-0.7,1.8,2470.399,13.33,0.041,357.2
2020-04-02T05:28:03,42.805,6.029,0.0,0.03,-0.036,104.0,113.0,101.0,13.3,1505.3,326.9,-0.7,1.8,2470.384,13.33,0.03,0.0
2020-04-02T05:31:03,42.805,6.029,-0.009,0.022,-0.027,104.0,112.0,100.0,13.4,1505.3,326.4,-0.7,1.9,2470.378,13.33,0.023,337.8
2020-04-02T05:34:03,42.805,6.029,0.028,0.036,-0.059,104.0,112.0,102.0,13.3,1505.3,324.5,-0.7,1.8,2470.381,13.33,0.045,37.9
2020-04-02T05:37:03,42.805,6.029,-0.003,0.022,-0.043,104.0,113.0,101.0,13.3,1505.3,326.1,-0.7,1.9,2470.402,13.33,0.022,352.2
2020-04-02T05:40:03,42.805,6.029,0.005,0.019,-0.04,104.0,112.0,101.0,13.4,1505.3,326.0,-0.7,1.8,2470.379,13.33,0.019,14.7
2020-04-02T05:43:03,42.805,6.029,-0.003,0.036,-0.031,104.0,112.0,102.0,13.3,1505.3,327.0,-0.7,1.9,2470.412,13.33,0.036,355.2
2020-04-02T05:46:03,42.805,6.029,-0.022,0.017,-0.068,104.0,113.0,103.0,13.3,1505.3,327.2,-0.7,1.8,2470.347,13.33,0.027,307.7
2020-04-02T05:49:03,42.805,6.029,-0.004,0.05,-0.022,105.0,113.0,101.0,13.3,1505.3,326.1,-0.7,1.8,2470.378,13.33,0.05,355.4
2020-04-02T05:52:03,42.805,6.029,-0.002,0.046,-0.022,104.0,113.0,102.0,13.3,1505.3,325.6,-0.7,1.8,2470.339,13.33,0.046,357.5
2020-04-02T05:55:03,42.805,6.029,-0.002,0.028,-0.033,105.0,111.0,102.0,13.3,1505.3,327.2,-0.7,1.8,2470.365,13.33,0.028,355.9
2020-04-02T05:58:03,42.805,6.029,0.012,0.031,-0.043,105.0,112.0,102.0,13.4,1505.3,326.7,-0.7,1.8,2470.372,13.33,0.033,21.2
2020-04-02T06:04:03,42.805,6.029,0.008,0.044,-0.031,105.0,113.0,102.0,13.4,1505.3,325.7,-0.7,1.8,2470.381,13.31,0.044,10.3
2020-04-02T06:07:03,42.805,6.029,0.002,0.01,-0.04,105.0,113.0,101.0,13.4,1505.3,325.7,-0.7,1.8,2470.386,13.32,0.01,11.3
2020-04-02T06:10:03,42.805,6.029,-0.001,0.022,-0.035,104.0,113.0,103.0,13.4,1505.3,327.1,-0.7,1.8,2470.359,13.33,0.022,357.4
2020-04-02T06:13:03,42.805,6.029,-0.002,0.032,-0.024,105.0,113.0,102.0,13.4,1505.3,325.2,-0.7,1.8,2470.343,13.33,0.032,356.4
2020-04-02T06:16:03,42.805,6.029,-0.007,0.018,-0.049,105.0,114.0,103.0,13.3,1505.3,325.4,-0.7,1.8,2470.399,13.33,0.019,338.8
2020-04-02T06:19:03,42.805,6.029,-0.009,0.053,-0.056,104.0,113.0,101.0,13.4,1505.3,325.8,-0.7,1.9,2470.378,13.33,0.053,350.4
2020-04-02T06:22:03,42.805,6.029,-0.004,0.022,-0.034,105.0,113.0,104.0,13.3,1505.3,326.8,-0.7,1.8,2470.345,13.33,0.022,349.7
2020-04-02T06:25:03,42.805,6.029,0.028,0.036,-0.02,105.0,114.0,102.0,13.4,1505.3,325.7,-0.7,1.8,2470.381,13.33,0.045,37.9
2020-04-02T06:28:03,42.805,6.029,0.002,0.028,0.008,107.0,112.0,102.0,13.4,1505.3,326.8,-0.7,1.8,2470.376,13.33,0.028,4.1
2020-04-02T06:31:03,42.805,6.029,0.0,0.025,-0.049,105.0,113.0,103.0,13.4,1505.4,325.9,-0.7,1.8,2470.367,13.34,0.025,0.0
2020-04-02T06:34:03,42.805,6.029,-0.006,0.034,-0.014,105.0,112.0,102.0,13.4,1505.4,325.0,-0.7,1.8,2470.361,13.34,0.034,350.0
2020-04-02T06:37:03,42.805,6.029,-0.009,0.026,-0.066,105.0,114.0,102.0,13.3,1505.4,327.4,-0.7,1.8,2470.368,13.34,0.027,340.9
2020-04-02T06:40:03,42.805,6.029,0.007,0.042,-0.061,105.0,114.0,101.0,13.4,1505.4,324.9,-0.7,1.9,2470.362,13.34,0.042,9.5
2020-04-02T06:43:03,42.805,6.029,0.017,0.037,-0.025,104.0,112.0,102.0,13.4,1505.4,325.9,-0.7,1.8,2470.352,13.34,0.04,24.7
2020-04-02T06:46:03,42.805,6.029,0.02,0.019,-0.051,104.0,113.0,103.0,13.4,1505.4,322.8,-0.7,1.8,2470.336,13.34,0.027,46.5
2020-04-02T06:49:03,42.805,6.029,0.007,0.037,-0.046,106.0,114.0,102.0,13.4,1505.4,327.9,-0.7,1.8,2470.332,13.34,0.037,10.7
2020-04-02T06:52:03,42.805,6.029,0.016,0.019,-0.058,105.0,115.0,100.0,13.3,1505.4,328.4,-0.7,1.9,2470.353,13.34,0.024,40.1
2020-04-02T06:55:03,42.805,6.029,0.002,0.044,-0.053,102.0,114.0,100.0,13.3,1505.3,324.7,-0.7,1.8,2470.371,13.33,0.044,2.6
2020-04-02T06:58:03,42.805,6.029,0.04,0.033,-0.039,102.0,114.0,102.0,13.3,1505.3,325.6,-0.7,1.8,2470.334,13.33,0.051,50.5
2020-04-02T07:04:03,42.805,6.029,0.021,0.037,-0.054,103.0,115.0,101.0,13.4,1505.3,323.2,-0.7,1.8,2470.397,13.31,0.042,29.6
2020-04-02T07:07:03,42.805,6.029,0.008,0.03,-0.033,104.0,114.0,100.0,13.3,1505.3,328.4,-0.7,1.8,2470.366,13.32,0.031,14.9
2020-04-02T07:10:03,42.805,6.029,0.015,0.034,-0.033,104.0,115.0,100.0,13.4,1505.3,324.5,-0.7,1.8,2470.372,13.32,0.037,23.8
2020-04-02T07:13:03,42.805,6.029,0.0,0.023,-0.053,104.0,115.0,100.0,13.4,1505.3,323.6,-0.7,1.8,2470.397,13.33,0.023,0.0
2020-04-02T07:16:03,42.805,6.029,-0.003,0.043,-0.034,105.0,113.0,101.0,13.4,1505.3,326.7,-0.7,1.8,2470.357,13.33,0.043,356.0
2020-04-02T07:19:03,42.805,6.029,0.002,0.026,-0.03,103.0,115.0,101.0,13.4,1505.3,324.0,-0.7,1.8,2470.377,13.33,0.026,4.4
2020-04-02T07:22:03,42.805,6.029,0.021,0.043,-0.023,104.0,114.0,102.0,13.3,1505.3,328.4,-0.7,1.8,2470.33,13.33,0.047,26.0
2020-04-02T07:25:03,42.805,6.029,0.009,0.028,-0.058,105.0,114.0,101.0,13.4,1505.3,327.0,-0.7,1.8,2470.303,13.33,0.029,17.8
2020-04-02T07:28:03,42.805,6.029,-0.009,0.028,-0.024,105.0,113.0,101.0,13.4,1505.3,327.3,-0.7,1.8,2470.346,13.33,0.029,342.2
2020-04-02T07:31:03,42.805,6.029,0.014,0.037,-0.021,106.0,116.0,102.0,13.3,1505.3,327.9,-0.7,1.8,2470.384,13.33,0.039,20.7
2020-04-02T07:34:03,42.805,6.029,-0.003,0.025,-0.03,104.0,113.0,102.0,13.4,1505.3,325.8,-0.7,1.8,2470.333,13.33,0.025,353.2
2020-04-02T07:37:03,42.805,6.029,-0.004,0.042,-0.042,105.0,115.0,103.0,13.4,1505.3,327.3,-0.7,1.8,2470.339,13.33,0.042,354.6
2020-04-02T07:40:03,42.805,6.029,-0.018,0.033,-0.056,105.0,114.0,102.0,13.4,1505.4,327.3,-0.7,1.8,2470.317,13.34,0.037,331.4
2020-04-02T07:43:03,42.805,6.029,0.025,0.02,-0.012,104.0,115.0,101.0,13.3,1505.4,327.9,-0.7,1.8,2470.346,13.34,0.032,51.3
2020-04-02T07:46:03,42.805,6.029,-0.011,0.033,-0.054,105.0,115.0,101.0,13.4,1505.4,327.0,-0.7,1.8,2470.326,13.34,0.034,341.6
2020-04-02T07:49:03,42.805,6.029,0.018,0.03,-0.033,104.0,112.0,102.0,13.4,1505.3,326.9,-0.7,1.8,2470.292,13.33,0.034,31.0
2020-04-02T07:52:03,42.805,6.029,-0.015,0.04,-0.034,104.0,113.0,100.0,13.4,1505.3,324.2,-0.7,1.9,2470.323,13.33,0.042,339.4
2020-04-02T07:55:03,42.805,6.029,-0.008,0.03,-0.025,103.0,114.0,101.0,13.4,1505.3,323.0,-0.7,1.8,2470.337,13.33,0.031,345.1
2020-04-02T07:58:03,42.805,6.029,0.028,0.025,-0.036,104.0,112.0,102.0,13.3,1505.3,326.8,-0.7,1.8,2470.333,13.33,0.037,48.2
2020-04-02T08:04:03,42.805,6.029,0.011,0.021,-0.069,103.0,115.0,101.0,13.3,1505.3,326.1,-0.7,1.8,2470.37,13.31,0.023,27.6
2020-04-02T08:07:03,42.805,6.029,0.009,0.017,-0.051,103.0,113.0,101.0,13.4,1505.3,326.4,-0.7,1.8,2470.39,13.32,0.019,27.9
2020-04-02T08:10:03,42.805,6.029,0.026,0.026,-0.037,103.0,114.0,102.0,13.3,1505.3,324.2,-0.7,1.8,2470.305,13.33,0.036,45.0
2020-04-02T08:13:03,42.805,6.029,-0.001,0.037,-0.01,103.0,115.0,100.0,13.3,1505.3,327.3,-0.7,1.8,2470.321,13.33,0.037,358.5
2020-04-02T08:16:03,42.805,6.029,0.001,0.03,-0.035,103.0,115.0,100.0,13.4,1505.3,326.8,-0.7,1.8,2470.363,13.33,0.03,1.9
2020-04-02T08:19:03,42.805,6.029,0.019,0.042,-0.043,103.0,114.0,100.0,13.3,1505.3,326.0,-0.7,1.8,2470.341,13.33,0.046,24.3
2020-04-02T08:22:03,42.805,6.029,0.003,0.032,-0.041,102.0,116.0,100.0,13.3,1505.3,326.6,-0.7,1.8,2470.372,13.33,0.032,5.4
2020-04-02T08:25:03,42.805,6.029,0.028,0.036,-0.05,103.0,115.0,100.0,13.4,1505.3,325.1,-0.7,1.8,2470.319,13.33,0.045,37.9
2020-04-02T08:28:03,42.805,6.029,0.011,0.051,-0.033,104.0,116.0,101.0,13.3,1505.3,327.0,-0.7,1.9,2470.336,13.33,0.052,12.2
2020-04-02T08:31:03,42.805,6.029,0.014,0.034,-0.033,103.0,115.0,100.0,13.4,1505.3,323.7,-0.7,1.8,2470.312,13.33,0.036,22.4
2020-04-02T08:34:03,42.805,6.029,0.025,0.033,-0.001,104.0,115.0,100.0,13.4,1505.3,323.0,-0.7,1.8,2470.328,13.33,0.041,37.2
2020-04-02T08:37:03,42.805,6.029,0.02,0.045,-0.027,103.0,116.0,101.0,13.4,1505.3,324.0,-0.7,1.8,2470.375,13.33,0.049,24.0
2020-04-02T08:40:03,42.805,6.029,0.002,0.063,-0.006,103.0,116.0,100.0,13.4,1505.3,324.7,-0.7,1.8,2470.264,13.33,0.063,1.8
2020-04-02T08:43:03,42.805,6.029,0.012,0.051,-0.005,103.0,115.0,101.0,13.4,1505.3,324.8,-0.7,1.8,2470.348,13.33,0.052,13.2
2020-04-02T08:46:03,42.805,6.029,0.017,0.042,-0.049,104.0,116.0,101.0,13.4,1505.3,325.3,-0.7,1.8,2470.316,13.33,0.045,22.0
2020-04-02T08:49:03,42.805,6.029,0.0,0.042,-0.015,104.0,114.0,100.0,13.3,1505.3,325.0,-0.7,1.9,2470.355,13.33,0.042,0.0
2020-04-02T08:52:03,42.805,6.029,-0.02,0.035,-0.052,103.0,114.0,101.0,13.3,1505.3,326.4,-0.7,1.8,2470.327,13.33,0.04,330.3
2020-04-02T08:55:03,42.805,6.029,-0.005,0.03,-0.027,103.0,115.0,101.0,13.4,1505.3,328.7,-0.7,1.8,2470.314,13.33,0.03,350.5
2020-04-02T08:58:03,42.805,6.029,0.025,0.043,0.007,104.0,114.0,101.0,13.3,1505.3,328.2,-0.7,1.9,2470.357,13.33,0.049,30.2
2020-04-02T09:04:03,42.805,6.029,-0.008,0.038,-0.037,105.0,116.0,100.0,13.4,1505.3,324.9,-0.7,1.9,2470.347,13.31,0.038,348.1
2020-04-02T09:07:03,42.805,6.029,0.003,0.058,-0.002,104.0,115.0,100.0,13.4,1505.3,326.6,-0.7,1.8,2470.328,13.32,0.058,3.0
2020-04-02T09:10:03,42.805,6.029,-0.01,0.051,-0.026,104.0,114.0,101.0,13.4,1505.3,326.9,-0.7,1.8,2470.351,13.33,0.051,348.9
2020-04-02T09:16:02,42.805,6.029,0.027,0.053,-0.028,102.0,117.0,100.0,13.4,1505.3,326.1,-0.7,1.8,2470.382,13.31,0.059,27.0
2020-04-02T09:19:03,42.805,6.029,0.005,0.057,0.004,103.0,116.0,100.0,13.3,1505.3,324.9,-0.7,1.8,2470.368,13.32,0.057,5.0
2020-04-02T09:22:03,42.805,6.029,0.018,0.046,-0.039,104.0,115.0,99.0,13.4,1505.3,324.9,-0.7,1.8,2470.348,13.32,0.049,21.4
2020-04-02T09:25:03,42.805,6.029,0.025,0.035,-0.025,102.0,116.0,101.0,13.4,1505.3,324.5,-0.7,1.8,2470.331,13.33,0.043,35.5
2020-04-02T09:28:03,42.805,6.029,0.012,0.04,-0.021,104.0,116.0,102.0,13.4,1505.3,325.0,-0.7,1.8,2470.346,13.33,0.041,16.7
2020-04-02T09:31:03,42.805,6.029,0.027,0.041,0.007,103.0,116.0,101.0,13.4,1505.3,324.8,-0.7,1.8,2470.344,13.33,0.049,33.4
2020-04-02T09:34:03,42.805,6.029,0.027,0.028,-0.028,104.0,115.0,102.0,13.4,1505.3,323.0,-0.7,1.8,2470.341,13.33,0.038,44.0
2020-04-02T09:37:03,42.805,6.029,0.006,0.04,-0.014,105.0,115.0,100.0,13.4,1505.3,328.1,-0.7,1.8,2470.326,13.33,0.04,8.5
2020-04-02T09:40:03,42.805,6.029,-0.002,0.014,-0.054,103.0,118.0,102.0,13.4,1505.3,327.2,-0.7,1.8,2470.318,13.33,0.014,351.9
2020-04-02T09:43:03,42.805,6.029,0.01,0.04,-0.028,104.0,116.0,100.0,13.3,1505.3,324.3,-0.7,1.8,2470.337,13.33,0.041,14.0
2020-04-02T09:46:03,42.805,6.029,0.019,0.042,-0.032,105.0,115.0,101.0,13.4,1505.3,325.3,-0.7,1.9,2470.353,13.33,0.046,24.3
2020-04-02T09:49:03,42.805,6.029,0.006,0.033,0.006,104.0,116.0,102.0,13.4,1505.3,324.0,-0.7,1.8,2470.347,13.33,0.033,10.3
2020-04-02T09:52:03,42.805,6.029,-0.005,0.034,-0.043,104.0,115.0,100.0,13.4,1505.3,326.5,-0.7,1.8,2470.317,13.33,0.034,351.6
2020-04-02T09:55:03,42.805,6.029,0.016,0.019,-0.004,104.0,115.0,101.0,13.3,1505.3,328.3,-0.7,1.8,2470.321,13.33,0.024,40.1
2020-04-02T09:58:03,42.805,6.029,0.003,0.044,-0.017,103.0,115.0,100.0,13.4,1505.3,325.0,-0.7,1.8,2470.292,13.33,0.044,3.9
2020-04-02T10:04:03,42.805,6.029,0.016,0.039,-0.049,103.0,115.0,101.0,13.4,1505.3,323.2,-0.7,1.8,2470.399,13.32,0.042,22.3
2020-04-02T10:07:03,42.805,6.029,-0.01,0.029,-0.051,103.0,115.0,101.0,13.4,1505.3,327.1,-0.7,1.8,2470.323,13.32,0.03,341.0
2020-04-02T10:10:03,42.805,6.029,0.0,0.031,-0.052,103.0,114.0,100.0,13.3,1505.3,325.7,-0.7,1.8,2470.37,13.33,0.03,0.0